This is the latest recevied weather packets stored in our database for station/object SR3WXA. If no packets are shown the sender has not sent any weather packets the latest 10 day(s).
| Time | Temp. | Humidity | Pressure | Rain* | Wind** | Luminosity | Snow |
|---|---|---|---|---|---|---|---|
| 1777879795 | 19.44° C | 54% | 1013.1 hPa | 0 mm | - | 257 W/m² | - |
| 1777879762 | 19.44° C | 54% | 1013.1 hPa | 0 mm | - | 257 W/m² | - |
| 1777879462 | 19.44° C | 54% | 1013 hPa | 0 mm | - | 239 W/m² | - |
| 1777879194 | 19.44° C | 54% | 1013.1 hPa | 0 mm | - | 264 W/m² | - |
| 1777879162 | 19.44° C | 54% | 1013.1 hPa | 0 mm | - | 264 W/m² | - |
| 1777878862 | 19.44° C | 54% | 1013.1 hPa | 0 mm | - | 213 W/m² | - |
| 1777878604 | 19.44° C | 54% | 1013.2 hPa | 0 mm | - | 253 W/m² | - |
| 1777878562 | 19.44° C | 54% | 1013.2 hPa | 0 mm | - | 253 W/m² | - |
| 1777878229 | 18.89° C | 55% | 1013.3 hPa | 0 mm | - | 283 W/m² | - |
| 1777877929 | 18.89° C | 55% | 1013.3 hPa | 0 mm | - | 385 W/m² | - |
| 1777877630 | 18.89° C | 55% | 1013.4 hPa | 0 mm | - | 452 W/m² | - |
| 1777877330 | 18.89° C | 55% | 1013.4 hPa | 0 mm | - | 494 W/m² | - |
| 1777877030 | 18.33° C | 55% | 1013.4 hPa | 0 mm | - | 471 W/m² | - |
| 1777876729 | 18.33° C | 55% | 1013.4 hPa | 0 mm | - | 251 W/m² | - |
| 1777876482 | 18.33° C | 56% | 1013.3 hPa | 0 mm | - | 334 W/m² | - |
| 1777876429 | 18.33° C | 56% | 1013.3 hPa | 0 mm | - | 334 W/m² | - |
| 1777876129 | 18.33° C | 56% | 1013.1 hPa | 0 mm | - | 236 W/m² | - |
| 1777875829 | 17.78° C | 57% | 1012.9 hPa | 0 mm | - | 216 W/m² | - |
| 1777875529 | 17.22° C | 57% | 1013.1 hPa | 0 mm | - | 272 W/m² | - |
| 1777875229 | 17.22° C | 57% | 1013.2 hPa | 0 mm | - | 149 W/m² | - |
| 1777874930 | 17.22° C | 57% | 1013.1 hPa | 0 mm | - | 244 W/m² | - |
| 1777874629 | 16.67° C | 57% | 1012.7 hPa | 0 mm | - | 151 W/m² | - |
| 1777874360 | 16.67° C | 57% | 1012.6 hPa | 0 mm | - | 127 W/m² | - |
| 1777874329 | 16.67° C | 57% | 1012.6 hPa | 0 mm | - | 127 W/m² | - |
| 1777874029 | 16.67° C | 58% | 1012.6 hPa | 0 mm | - | 188 W/m² | - |
* Rain latest hour (hover to see other rain measurements)
** Current wind speed in m/s (hover to see current wind gust speed)